• în România
  • Lista ţărilor
  • Pe 7 zile
  • Temperatura apei
  • Hartă satelitară
  • Meteo pe hartă
  • Widget-uri
  • user-avatar
    Intrare

    Meteo pe oră la Trujillo

    Astăzi, 27 Mai, Duminică

    Timp Temperatura Precipitaţii Vânt Presiune Umiditate
    00:00 +19°C° 0 mm 1 m/s 647 mmHg 68%
    01:00 +19°C° 0 mm 1 m/s 646 mmHg 67%
    02:00 +19°C° 0,1 mm 1 m/s 646 mmHg 68%
    03:00 +19°C° 0,1 mm 1 m/s 646 mmHg 69%
    04:00 +19°C° 0,1 mm 1 m/s 646 mmHg 70%
    05:00 +20°C° 0,1 mm 1 m/s 647 mmHg 69%
    06:00 +21°C° 0,1 mm 1 m/s 648 mmHg 68%
    07:00 +22°C° 0,1 mm 1 m/s 648 mmHg 67%
    08:00 +24°C° 0,1 mm 1 m/s 649 mmHg 65%
    09:00 +25°C° 0,1 mm 1 m/s 649 mmHg 62%
    10:00 +26°C° 0,1 mm 2 m/s 650 mmHg 60%
    11:00 +27°C° 0,2 mm 2 m/s 650 mmHg 59%
    12:00 +27°C° 0,2 mm 2 m/s 649 mmHg 58%
    13:00 +28°C° 0,2 mm 2 m/s 649 mmHg 57%
    14:00 +27°C° 0,4 mm 2 m/s 648 mmHg 60%
    15:00 +26°C° 0,4 mm 2 m/s 648 mmHg 63%
    16:00 +26°C° 0,4 mm 2 m/s 647 mmHg 65%
    17:00 +24°C° 0,5 mm 1 m/s 647 mmHg 72%
    18:00 +22°C° 0,5 mm 1 m/s 647 mmHg 79%
    19:00 +21°C° 0,5 mm 1 m/s 647 mmHg 85%
    20:00 +20°C° 0,3 mm 1 m/s 647 mmHg 84%
    21:00 +20°C° 0,3 mm 1 m/s 648 mmHg 82%
    22:00 +20°C° 0,3 mm 1 m/s 648 mmHg 81%
    23:00 +20°C° 0,2 mm 1 m/s 647 mmHg 80%

    Mâine, 28 Mai, Luni

    Timp Temperatura Precipitaţii Vânt Presiune Umiditate
    00:00 +20°C° 0,2 mm 1 m/s 647 mmHg 79%
    01:00 +19°C° 0,2 mm 1 m/s 647 mmHg 78%
    02:00 +19°C° 0,3 mm 1 m/s 647 mmHg 78%
    03:00 +20°C° 0,3 mm 1 m/s 647 mmHg 79%
    04:00 +20°C° 0,3 mm 1 m/s 646 mmHg 79%
    05:00 +20°C° 0,3 mm 1 m/s 647 mmHg 78%
    06:00 +21°C° 0,3 mm 1 m/s 648 mmHg 77%
    07:00 +22°C° 0,3 mm 1 m/s 649 mmHg 76%
    08:00 +23°C° 0,3 mm 1 m/s 649 mmHg 72%
    09:00 +24°C° 0,3 mm 1 m/s 650 mmHg 69%
    10:00 +25°C° 0,3 mm 2 m/s 650 mmHg 66%
    11:00 +26°C° 0,3 mm 2 m/s 650 mmHg 64%
    12:00 +26°C° 0,3 mm 2 m/s 649 mmHg 63%
    13:00 +27°C° 0,3 mm 2 m/s 649 mmHg 61%
    14:00 +26°C° 0,5 mm 2 m/s 648 mmHg 65%
    15:00 +25°C° 0,5 mm 1 m/s 648 mmHg 68%
    16:00 +24°C° 0,5 mm 1 m/s 647 mmHg 71%
    17:00 +23°C° 0,5 mm 1 m/s 647 mmHg 75%
    18:00 +22°C° 0,5 mm 1 m/s 647 mmHg 79%
    19:00 +20°C° 0,5 mm 1 m/s 647 mmHg 82%
    20:00 +20°C° 0,2 mm 1 m/s 648 mmHg 81%
    21:00 +20°C° 0,2 mm 1 m/s 648 mmHg 80%
    22:00 +20°C° 0,2 mm 1 m/s 648 mmHg 79%
    23:00 +20°C° 0,1 mm 1 m/s 648 mmHg 78%

    Poimâine, 29 Mai, Marţi

    Timp Temperatura Precipitaţii Vânt Presiune Umiditate
    00:00 +20°C° 0,1 mm 1 m/s 648 mmHg 77%
    01:00 +20°C° 0,1 mm 1 m/s 647 mmHg 76%
    02:00 +20°C° 0,1 mm 1 m/s 647 mmHg 77%
    03:00 +19°C° 0,1 mm 1 m/s 647 mmHg 77%
    04:00 +19°C° 0,1 mm 1 m/s 647 mmHg 77%
    05:00 +20°C° 0,1 mm 1 m/s 647 mmHg 76%
    06:00 +21°C° 0,1 mm 1 m/s 648 mmHg 75%
    07:00 +21°C° 0,1 mm 1 m/s 649 mmHg 73%
    08:00 +23°C° 0,1 mm 1 m/s 649 mmHg 70%
    09:00 +24°C° 0,1 mm 1 m/s 650 mmHg 66%
    10:00 +26°C° 0,1 mm 1 m/s 650 mmHg 62%
    11:00 +26°C° 0,1 mm 1 m/s 650 mmHg 61%
    12:00 +26°C° 0,1 mm 2 m/s 650 mmHg 60%
    13:00 +27°C° 0,1 mm 2 m/s 649 mmHg 59%
    14:00 +26°C° 0,3 mm 2 m/s 649 mmHg 63%
    15:00 +25°C° 0,3 mm 1 m/s 648 mmHg 67%
    16:00 +24°C° 0,3 mm 1 m/s 647 mmHg 71%
    17:00 +23°C° 0,4 mm 1 m/s 647 mmHg 75%
    18:00 +22°C° 0,4 mm 1 m/s 647 mmHg 80%
    19:00 +20°C° 0,4 mm 1 m/s 647 mmHg 84%
    20:00 +20°C° 0,1 mm 1 m/s 647 mmHg 82%
    21:00 +20°C° 0,1 mm 1 m/s 648 mmHg 81%
    22:00 +20°C° 0,1 mm 1 m/s 648 mmHg 79%
    23:00 +19°C° 0,1 mm 1 m/s 648 mmHg 78%

    30 Mai, Miercuri

    Timp Temperatura Precipitaţii Vânt Presiune Umiditate
    00:00 +19°C° 0,1 mm 1 m/s 647 mmHg 78%
    01:00 +19°C° 0,1 mm 1 m/s 647 mmHg 77%
    02:00 +19°C° 0 mm 1 m/s 647 mmHg 77%
    03:00 +19°C° 0 mm 1 m/s 647 mmHg 78%
    04:00 +19°C° 0 mm 1 m/s 647 mmHg 78%
    05:00 +20°C° 0 mm 1 m/s 648 mmHg 76%
    06:00 +21°C° 0 mm 1 m/s 648 mmHg 73%
    07:00 +22°C° 0 mm 1 m/s 649 mmHg 71%
    08:00 +23°C° 0,1 mm 1 m/s 649 mmHg 67%
    09:00 +25°C° 0,1 mm 1 m/s 650 mmHg 63%
    10:00 +26°C° 0,1 mm 2 m/s 650 mmHg 59%
    11:00 +27°C° 0,1 mm 2 m/s 650 mmHg 58%
    12:00 +27°C° 0,1 mm 2 m/s 649 mmHg 57%
    13:00 +28°C° 0,1 mm 2 m/s 649 mmHg 56%
    14:00 +27°C° 0,3 mm 2 m/s 648 mmHg 61%
    15:00 +26°C° 0,3 mm 2 m/s 647 mmHg 66%
    16:00 +25°C° 0,3 mm 1 m/s 647 mmHg 71%
    17:00 +23°C° 0,4 mm 1 m/s 647 mmHg 76%
    18:00 +22°C° 0,4 mm 1 m/s 647 mmHg 82%
    19:00 +20°C° 0,4 mm 1 m/s 647 mmHg 87%
    20:00 +20°C° 0,1 mm 1 m/s 647 mmHg 87%
    21:00 +20°C° 0,1 mm 1 m/s 647 mmHg 86%
    22:00 +19°C° 0,1 mm 1 m/s 647 mmHg 85%
    23:00 +19°C° 0,1 mm 1 m/s 647 mmHg 83%

    31 Mai, Joi

    Timp Temperatura Precipitaţii Vânt Presiune Umiditate
    00:00 +19°C° 0,1 mm 1 m/s 647 mmHg 81%
    01:00 +19°C° 0,1 mm 1 m/s 646 mmHg 78%
    02:00 +19°C° 0,1 mm 1 m/s 646 mmHg 78%
    03:00 +18°C° 0,1 mm 1 m/s 646 mmHg 78%
    04:00 +18°C° 0,1 mm 1 m/s 646 mmHg 78%
    05:00 +19°C° 0 mm 1 m/s 647 mmHg 76%
    06:00 +20°C° 0 mm 1 m/s 648 mmHg 74%
    07:00 +22°C° 0 mm 1 m/s 649 mmHg 72%
    08:00 +23°C° 0,1 mm 1 m/s 649 mmHg 66%
    09:00 +25°C° 0,1 mm 1 m/s 650 mmHg 61%
    10:00 +27°C° 0,1 mm 1 m/s 651 mmHg 55%
    11:00 +27°C° 0,1 mm 2 m/s 650 mmHg 54%
    12:00 +28°C° 0,1 mm 2 m/s 649 mmHg 52%
    13:00 +28°C° 0,1 mm 2 m/s 649 mmHg 51%
    14:00 +27°C° 0,1 mm 2 m/s 648 mmHg 54%
    15:00 +26°C° 0,1 mm 2 m/s 648 mmHg 58%
    16:00 +25°C° 0,1 mm 1 m/s 647 mmHg 62%
    17:00 +24°C° 0,2 mm 1 m/s 647 mmHg 68%
    18:00 +22°C° 0,2 mm 1 m/s 647 mmHg 74%
    19:00 +20°C° 0,2 mm 1 m/s 647 mmHg 81%
    20:00 +20°C° 0,1 mm 1 m/s 647 mmHg 78%
    21:00 +20°C° 0,1 mm 1 m/s 647 mmHg 76%
    22:00 +20°C° 0,1 mm 1 m/s 647 mmHg 73%
    23:00 +20°C° 0 mm 1 m/s 647 mmHg 71%

    1 Iunie, Vineri

    Timp Temperatura Precipitaţii Vânt Presiune Umiditate
    00:00 +19°C° 0 mm 1 m/s 646 mmHg 69%
    01:00 +19°C° 0 mm 1 m/s 646 mmHg 67%
    02:00 +19°C° 0 mm 1 m/s 646 mmHg 69%
    03:00 +19°C° 0 mm 1 m/s 646 mmHg 70%
    04:00 +19°C° 0 mm 1 m/s 646 mmHg 71%
    05:00 +20°C° 0,1 mm 1 m/s 647 mmHg 71%
    06:00 +21°C° 0,1 mm 1 m/s 648 mmHg 72%
    07:00 +21°C° 0,1 mm 1 m/s 648 mmHg 72%
    08:00 +23°C° 0,1 mm 1 m/s 649 mmHg 68%
    09:00 +24°C° 0,1 mm 1 m/s 649 mmHg 64%
    10:00 +26°C° 0,1 mm 1 m/s 650 mmHg 60%
    11:00 +26°C° 0,2 mm 2 m/s 649 mmHg 59%
    12:00 +27°C° 0,2 mm 2 m/s 649 mmHg 58%
    13:00 +27°C° 0,2 mm 2 m/s 649 mmHg 57%
    14:00 +26°C° 0,3 mm 2 m/s 648 mmHg 61%
    15:00 +25°C° 0,3 mm 1 m/s 648 mmHg 65%
    16:00 +25°C° 0,3 mm 1 m/s 647 mmHg 69%
    17:00 +23°C° 0,2 mm 1 m/s 647 mmHg 74%
    18:00 +22°C° 0,2 mm 1 m/s 647 mmHg 78%
    19:00 +20°C° 0,2 mm 1 m/s 647 mmHg 83%
    20:00 +20°C° 0,1 mm 1 m/s 647 mmHg 81%
    21:00 +20°C° 0,1 mm 1 m/s 647 mmHg 79%
    22:00 +20°C° 0,1 mm 1 m/s 647 mmHg 77%
    23:00 +19°C° 0 mm 1 m/s 647 mmHg 76%
    Arată mai mult